Home > Weather > Long Beach > Past weeks

Flag for U.S.A. Weather for the Past 2 Weeks in Long Beach, California, U.S.A.

Now
50 °F

Fog.


Feels Like: 50 °F
Forecast: 52 / 82 °F
Wind: No wind

Location: Long Beach Airport

Current Time: Feb 14, 2016 at 4:44:56 AM

Latest Report: Feb 14, 2016 at 4:04 AM


Visibility: 0 mi

Pressure: 30.03 "Hg

Humidity: 96%

Dew point: 49 °F

Location of Long BeachLocation

Historic Weather in Long Beach — Graph

°F

Long Beach Temperature Yesterday

Maximum temperature yesterday: 70 °F (at 3:53 PM)
Minimum temperature yesterday: 50 °F (at 5:53 AM)
Average temperature yesterday: 58 °F

High & Low Weather Summary for the Past Weeks

 TemperatureHumidityPressure
High91 °F (Feb 9, 1:53 PM)100% (Feb 13, 3:53 AM)30.36 "Hg (Feb 13, 3:53 AM)
Low40 °F (Feb 2, 5:53 AM)12% (Feb 6, 2:53 PM)29.63 "Hg (Jan 31, 1:53 PM)
Average61 °F48%30.11 "Hg
* Reported Jan 30 3:53 AM — Feb 14 3:01 AM, Long Beach, Weather by CustomWeather, © 2016

Note: Actual official high and low records may vary slightly from our data, if they occured in-between our weather recording intervals... More about our weather records

Advertising

Long Beach Weather History for the Previous 24 Hours

 ConditionsComfort  
Time TempWeatherWind HumidityBarometerVisibility
3:01 AM
Sun, Feb 14
52 °FFog.No wind97%30.04 "Hg3 mi
1:53 AM53 °FFog.No wind89%30.06 "Hg3 mi
12:53 AM55 °FFog.No wind93%30.06 "Hg3 mi
11:53 PM
Sat, Feb 13
54 °FFog.No wind97%30.06 "Hg3 mi
10:53 PM55 °FFog.No wind96%30.06 "Hg3 mi
9:53 PM55 °FFog.7 mph93%30.06 "Hg4 mi
8:53 PM56 °FFog.10 mph93%30.06 "Hg5 mi
7:53 PM58 °FClear.3 mph81%30.04 "Hg6 mi
6:53 PM61 °FClear.5 mph70%30.04 "Hg7 mi
5:53 PM65 °FClear.No wind56%30.01 "Hg9 mi
4:53 PM67 °FSunny.7 mph55%30.02 "Hg8 mi
3:53 PM70 °FSunny.10 mph44%30.03 "Hg7 mi
2:53 PM66 °FSunny.6 mph65%30.04 "Hg5 mi
1:53 PM65 °FSunny.7 mph63%30.04 "Hg6 mi
12:53 PM62 °FSunny.10 mph73%30.05 "Hg5 mi
11:53 AM67 °FSunny.5 mph61%30.06 "Hg6 mi
10:53 AM63 °FSunny.6 mph73%30.09 "Hg5 mi
9:53 AM60 °FFog.No wind86%30.10 "Hg3 mi
8:56 AM53 °FFog.3 mph100%30.11 "Hg1 mi
8:00 AM51 °FFog.No wind100%30.10 "Hg0 mi
6:53 AM50 °FFog.No wind100%30.11 "Hg0 mi
5:53 AM50 °FFog.No wind100%30.09 "Hg0 mi
4:53 AM51 °FFog.3 mph100%30.08 "Hg0 mi
Weather by CustomWeather, © 2016

See weather overviewHow to use our weather pages